| time (UTC) | temp F | wind direction | speed MPH | gust MPH | rain 1hr in | rain 24hr in | rain mn in | humidity % | barometer mb |
| 20260831063019 | 70 | 332 | 0.0 | 0.0 | 0.00 | 0.00 | 0.00 | 85 | 1014.9 |
| 20260831061518 | 70 | 343 | 0.0 | 0.0 | 0.00 | 0.00 | 0.00 | 85 | 1014.8 |
| 20260831060015 | 69 | 328 | 0.0 | 0.0 | 0.00 | 0.00 | 0.00 | 84 | 1014.6 |
| 20260831054514 | 0 | 0.0 | 0.0 | 0.00 | 0.00 | 0.00 | 1014.5 | ||
| 20260831053006 | 0 | 0.0 | 0.0 | 0.00 | 0.00 | 0.00 | 1014.4 | ||
| 20260831051506 | 0 | 0.0 | 0.0 | 0.00 | 0.00 | 0.00 | 1014.2 | ||
| 20260831050058 | 0 | 0.0 | 0.0 | 0.00 | 0.00 | 0.00 | 1014.1 | ||
| 20260831044554 | 0 | 0.0 | 0.0 | 0.00 | 0.00 | 0.00 | 1014.1 | ||
| 20260831043051 | 0 | 0.0 | 0.0 | 0.00 | 0.00 | 0.00 | 1014.0 | ||
| 20260831041545 | 0 | 0.0 | 0.0 | 0.00 | 0.00 | 0.00 | 1013.9 | ||
| 20260831040041 | 0 | 0.0 | 0.0 | 0.00 | 0.00 | 0.00 | 1013.8 | ||
| 20260831034539 | 71 | 332 | 0.0 | 0.0 | 0.00 | 0.00 | 0.00 | 84 | 1013.9 |
| 20260831033037 | 71 | 332 | 0.0 | 0.0 | 0.00 | 0.00 | 0.00 | 84 | 1014.0 |
| 20260831031541 | 71 | 330 | 0.0 | 0.0 | 0.00 | 0.00 | 0.00 | 82 | 1013.9 |
| 20260831030033 | 71 | 331 | 0.0 | 0.0 | 0.00 | 0.00 | 0.00 | 82 | 1013.9 |
| 20260831024600 | 72 | 330 | 0.0 | 0.0 | 0.00 | 0.00 | 0.00 | 82 | 1013.8 |
| 20260831023028 | 72 | 333 | 0.0 | 0.0 | 0.00 | 0.00 | 0.00 | 82 | 1013.8 |
| 20260831021525 | 73 | 343 | 0.0 | 0.0 | 0.00 | 0.00 | 0.00 | 84 | 1013.8 |
| 20260831020024 | 73 | 359 | 0.0 | 0.0 | 0.00 | 0.00 | 0.00 | 87 | 1013.7 |
| 20260831014534 | 74 | 360 | 0.0 | 0.0 | 0.00 | 0.00 | 0.00 | 87 | 1013.6 |
| 20260831013022 | 74 | 6 | 0.0 | 0.0 | 0.00 | 0.00 | 0.00 | 86 | 1013.7 |
| 20260831011518 | 74 | 13 | 0.0 | 0.0 | 0.00 | 0.00 | 0.00 | 86 | 1013.9 |
| 20260831010016 | 74 | 13 | 0.0 | 0.0 | 0.00 | 0.00 | 0.00 | 85 | 1014.0 |
| 20260831004518 | 75 | 32 | 0.0 | 0.0 | 0.00 | 0.00 | 0.00 | 85 | 1014.0 |
| 20260831003014 | 75 | 30 | 0.0 | 0.0 | 0.00 | 0.00 | 0.00 | 85 | 1014.0 |
| 20260831001511 | 76 | 345 | 0.0 | 0.0 | 0.00 | 0.00 | 0.00 | 85 | 1014.0 |
| 20260831000009 | 76 | 51 | 0.0 | 0.0 | 0.00 | 0.00 | 0.00 | 86 | 1014.0 |
| 20260830234507 | 76 | 60 | 0.0 | 0.0 | 0.00 | 0.00 | 0.00 | 86 | 1014.1 |
| 20260830233006 | 76 | 105 | 0.0 | 0.0 | 0.00 | 0.00 | 0.00 | 85 | 1014.2 |
| 20260830231506 | 77 | 106 | 0.0 | 0.0 | 0.00 | 0.00 | 0.00 | 85 | 1014.2 |
| 20260830230004 | 77 | 105 | 0.0 | 0.0 | 0.00 | 0.00 | 0.00 | 85 | 1014.1 |
| 20260830224502 | 77 | 89 | 0.0 | 0.0 | 0.00 | 0.00 | 0.00 | 84 | 1014.1 |
| 20260830223001 | 77 | 94 | 0.0 | 0.0 | 0.00 | 0.00 | 0.00 | 83 | 1014.1 |
| 20260830221600 | 77 | 90 | 0.0 | 3.0 | 0.00 | 0.00 | 0.00 | 83 | 1014.1 |
| 20260830220058 | 77 | 103 | 0.0 | 0.0 | 0.00 | 0.00 | 0.00 | 84 | 1014.0 |
| 20260830214558 | 77 | 115 | 0.0 | 2.0 | 0.00 | 0.00 | 0.00 | 83 | 1014.0 |
| 20260830213056 | 77 | 120 | 0.0 | 0.0 | 0.00 | 0.00 | 0.00 | 83 | 1013.9 |
| 20260830211556 | 77 | 107 | 0.0 | 1.0 | 0.00 | 0.00 | 0.00 | 83 | 1013.9 |
| 20260830210054 | 77 | 111 | 0.0 | 5.0 | 0.00 | 0.00 | 0.00 | 82 | 1013.7 |
| 20260830204553 | 77 | 107 | 0.0 | 0.0 | 0.00 | 0.00 | 0.00 | 83 | 1013.6 |
| 20260830203115 | 77 | 101 | 0.0 | 5.0 | 0.00 | 0.00 | 0.00 | 83 | 1013.6 |
| 20260830201558 | 78 | 108 | 0.0 | 0.0 | 0.00 | 0.00 | 0.00 | 83 | 1013.5 |
| 20260830200052 | 78 | 136 | 0.0 | 6.0 | 0.00 | 0.00 | 0.00 | 83 | 1013.3 |
| 20260830194552 | 78 | 68 | 0.0 | 1.0 | 0.00 | 0.00 | 0.00 | 83 | 1013.1 |
| 20260830193052 | 78 | 89 | 0.0 | 5.0 | 0.00 | 0.00 | 0.00 | 83 | 1012.9 |
| 20260830191555 | 78 | 107 | 0.0 | 1.0 | 0.00 | 0.00 | 0.00 | 83 | 1012.8 |
| 20260830190048 | 79 | 100 | 0.0 | 1.0 | 0.00 | 0.00 | 0.00 | 81 | 1012.6 |
| 20260830184548 | 79 | 143 | 0.0 | 0.0 | 0.00 | 0.00 | 0.00 | 79 | 1012.5 |
| 20260830183055 | 80 | 114 | 0.0 | 5.0 | 0.00 | 0.00 | 0.00 | 78 | 1012.4 |
| 20260830181555 | 80 | 152 | 0.0 | 0.0 | 0.00 | 0.00 | 0.00 | 76 | 1012.4 |
| 20260830180043 | 81 | 115 | 0.0 | 1.0 | 0.00 | 0.00 | 0.00 | 75 | 1012.3 |
| 20260830174542 | 81 | 138 | 0.0 | 0.0 | 0.00 | 0.00 | 0.00 | 74 | 1012.3 |
| 20260830173059 | 83 | 115 | 0.0 | 0.0 | 0.00 | 0.00 | 0.00 | 72 | 1012.4 |
| 20260830171544 | 82 | 164 | 0.0 | 7.0 | 0.00 | 0.00 | 0.00 | 72 | 1012.4 |
| 20260830170037 | 83 | 153 | 0.0 | 2.0 | 0.00 | 0.00 | 0.00 | 72 | 1012.4 |
| 20260830164601 | 83 | 157 | 0.0 | 1.0 | 0.00 | 0.00 | 0.00 | 73 | 1012.4 |
| 20260830163047 | 83 | 162 | 0.0 | 1.0 | 0.00 | 0.00 | 0.00 | 72 | 1012.5 |
| 20260830161535 | 83 | 152 | 0.0 | 1.0 | 0.00 | 0.00 | 0.00 | 73 | 1012.6 |
| 20260830160032 | 83 | 100 | 0.0 | 7.0 | 0.00 | 0.00 | 0.00 | 73 | 1012.6 |
| 20260830154533 | 83 | 150 | 0.0 | 7.0 | 0.00 | 0.00 | 0.00 | 74 | 1012.7 |
| 20260830153029 | 83 | 194 | 0.0 | 9.0 | 0.00 | 0.00 | 0.00 | 73 | 1012.7 |
| 20260830151537 | 83 | 233 | 0.0 | 5.0 | 0.00 | 0.00 | 0.00 | 72 | 1012.9 |
| 20260830150024 | 82 | 188 | 0.0 | 10.0 | 0.00 | 0.00 | 0.00 | 73 | 1013.0 |
| 20260830144523 | 83 | 173 | 1.0 | 9.0 | 0.00 | 0.00 | 0.00 | 71 | 1013.2 |
| 20260830143021 | 83 | 139 | 4.0 | 10.0 | 0.00 | 0.00 | 0.00 | 66 | 1013.4 |
| 20260830141519 | 84 | 181 | 0.0 | 5.0 | 0.00 | 0.00 | 0.00 | 61 | 1013.5 |
| 20260830140017 | 84 | 98 | 0.0 | 9.0 | 0.00 | 0.00 | 0.00 | 59 | 1013.5 |
| 20260830134516 | 84 | 180 | 0.0 | 1.0 | 0.00 | 0.00 | 0.00 | 56 | 1013.7 |
| 20260830133012 | 85 | 157 | 0.0 | 3.0 | 0.00 | 0.00 | 0.00 | 54 | 1013.9 |
| 20260830131510 | 85 | 236 | 0.0 | 5.0 | 0.00 | 0.00 | 0.00 | 53 | 1014.1 |
| 20260830130007 | 85 | 188 | 0.0 | 5.0 | 0.00 | 0.00 | 0.00 | 47 | 1014.1 |
| 20260830124512 | 84 | 191 | 0.0 | 5.0 | 0.00 | 0.00 | 0.00 | 44 | 1014.3 |
| 20260830123005 | 84 | 128 | 0.0 | 2.0 | 0.00 | 0.00 | 0.00 | 44 | 1014.5 |
| 20260830121504 | 84 | 197 | 1.0 | 7.0 | 0.00 | 0.00 | 0.00 | 43 | 1014.6 |
| 20260830120001 | 84 | 179 | 1.0 | 7.0 | 0.00 | 0.00 | 0.00 | 42 | 1014.7 |
| 20260830114622 | 84 | 221 | 0.0 | 7.0 | 0.00 | 0.00 | 0.00 | 41 | 1014.8 |
| 20260830113105 | 84 | 121 | 0.0 | 0.0 | 0.00 | 0.00 | 0.00 | 43 | 1014.8 |
| 20260830111557 | 83 | 154 | 0.0 | 6.0 | 0.00 | 0.00 | 0.00 | 44 | 1014.9 |
| 20260830110056 | 83 | 187 | 0.0 | 6.0 | 0.00 | 0.00 | 0.00 | 49 | 1015.1 |
| 20260830104558 | 83 | 150 | 0.0 | 5.0 | 0.00 | 0.00 | 0.00 | 47 | 1015.1 |
| 20260830103051 | 82 | 187 | 0.0 | 3.0 | 0.00 | 0.00 | 0.00 | 46 | 1015.1 |
| 20260830101551 | 83 | 139 | 0.0 | 0.0 | 0.00 | 0.00 | 0.00 | 46 | 1015.1 |
| 20260830100049 | 82 | 188 | 0.0 | 0.0 | 0.00 | 0.00 | 0.00 | 47 | 1015.3 |
| 20260830094552 | 81 | 135 | 0.0 | 0.0 | 0.00 | 0.00 | 0.00 | 46 | 1015.3 |
| 20260830093044 | 82 | 165 | 0.0 | 1.0 | 0.00 | 0.00 | 0.00 | 47 | 1015.2 |
| 20260830091541 | 81 | 160 | 0.0 | 0.0 | 0.00 | 0.00 | 0.00 | 44 | 1015.2 |
| 20260830090044 | 81 | 208 | 0.0 | 0.0 | 0.00 | 0.00 | 0.00 | 44 | 1015.2 |
| 20260830084537 | 80 | 113 | 0.0 | 0.0 | 0.00 | 0.00 | 0.00 | 44 | 1015.1 |
| 20260830083056 | 79 | 121 | 0.0 | 0.0 | 0.00 | 0.00 | 0.00 | 46 | 1015.1 |
| 20260830081532 | 78 | 148 | 0.0 | 0.0 | 0.00 | 0.00 | 0.00 | 47 | 1015.2 |
| 20260830080026 | 76 | 335 | 0.0 | 0.0 | 0.00 | 0.00 | 0.00 | 49 | 1015.1 |
| 20260830074523 | 75 | 335 | 0.0 | 0.0 | 0.00 | 0.00 | 0.00 | 51 | 1015.2 |
| 20260830073019 | 73 | 335 | 0.0 | 0.0 | 0.00 | 0.00 | 0.00 | 54 | 1015.1 |
| 20260830071520 | 71 | 335 | 0.0 | 0.0 | 0.00 | 0.00 | 0.00 | 56 | 1015.1 |
| 20260830070018 | 69 | 335 | 0.0 | 0.0 | 0.00 | 0.00 | 0.00 | 60 | 1015.0 |
| 20260830064525 | 68 | 334 | 0.0 | 0.0 | 0.00 | 0.00 | 0.00 | 61 | 1015.0 |